Phoenix-Mesa Gateway Airport, AZ

10:30 AM MST on December 05, 2019 (GMT -0700)
Phoenix-Mesa Gateway Airport

Weather History for KIWA - November, 2019

Change the Weather History Date:

Friday, November 22, 2019

  Actual Average Record
Temperature  
Mean Temperature 56 °F -  
Max Temperature 62 °F 69 °F 87 °F (2017)
Min Temperature 50 °F 43 °F 35 °F (2015)
Degree Days  
Heating Degree Days 9    
Growing Degree Days 6 (Base 50)    
Moisture  
Dew Point 48 °F    
Average Humidity 80    
Maximum Humidity 100    
Minimum Humidity 45    
Precipitation  
Precipitation 0.00 in - - ()
Sea Level Pressure  
Sea Level Pressure 30.13 in    
Wind  
Wind Speed 4 mph ()    
Max Wind Speed 7 mph    
Max Gust Speed -    
Visibility 10.0 miles    
Events Rain    
Averages and records for this station are not official NWS values.
T = Trace of Precipitation, MM = Missing Value Source: Averaged Metar Reports

Daily Weather History Graph

Daily Weather History Graph

Search for Another Location

Airport or City:

Astronomy

Nov. 22, 2019 Rise Set
Actual Time 7:04 AM MST 5:21 PM MST
Civil Twilight 6:37 AM MST 5:47 PM MST
Nautical Twilight 6:07 AM MST 6:18 PM MST
Astronomical Twilight 5:37 AM MST 6:47 PM MST
Moon 2:32 AM MST (11/22) 3:07 PM MST (11/22)
Length of Visible Light 11h 10m
Length of Day
10h 17m
Waning Crescent, 19% of the Moon is Illuminated
Nov 22
Waning Crescent
Nov 26
New
Dec 3
First Quarter
Dec 11
Full
Dec 18
Last Quarter

Hourly Weather History & Observations

Time (MST) Temp. Dew Point Humidity Pressure Visibility Wind Dir Wind Speed Gust Speed Precip Events Conditions
12:15 AM 53.4 °F 50.2 °F 89% 30.10 in 10.0 mi ESE 6.9 mph - N/A   Overcast
12:35 AM 53.2 °F 50.4 °F 90% 30.10 in 10.0 mi SSE 4.6 mph - N/A   Overcast
12:55 AM 52.7 °F 50.4 °F 92% 30.11 in 10.0 mi South 4.6 mph - N/A   Overcast
1:15 AM 52.9 °F 50.5 °F 92% 30.12 in 10.0 mi SSE 5.8 mph - N/A   Overcast
1:35 AM 52.9 °F 50.4 °F 91% 30.12 in 10.0 mi Calm Calm - N/A   Overcast
1:55 AM 52.9 °F 50.4 °F 91% 30.12 in 10.0 mi SSE 4.6 mph - N/A Rain Light Rain
2:15 AM 52.9 °F 50.4 °F 91% 30.12 in 10.0 mi Calm Calm - N/A   Overcast
2:35 AM 52.3 °F 50.7 °F 94% 30.13 in 10.0 mi NW 4.6 mph - N/A   Overcast
2:55 AM 52.5 °F 50.7 °F 94% 30.13 in 10.0 mi North 3.5 mph - N/A   Overcast
3:15 AM 52.2 °F 50.7 °F 95% 30.13 in 10.0 mi NE 4.6 mph - N/A   Overcast
3:35 AM 52.0 °F 50.5 °F 95% 30.13 in 10.0 mi East 3.5 mph - N/A   Overcast
3:55 AM 51.8 °F 50.2 °F 94% 30.13 in 10.0 mi Calm Calm - N/A   Scattered Clouds
4:15 AM 51.1 °F 49.8 °F 95% 30.13 in 10.0 mi ENE 3.5 mph - N/A   Clear
4:35 AM 50.9 °F 49.6 °F 95% 30.13 in 10.0 mi East 4.6 mph - N/A   Clear
4:50 AM 50.0 °F 50.0 °F 100% 30.13 in 10.0 mi East 5.8 mph - N/A   Mostly Cloudy
5:55 AM 50.0 °F 48.2 °F 94% 30.14 in 10.0 mi NE 3.5 mph - N/A   Mostly Cloudy
6:50 AM 50.0 °F 46.4 °F 87% 30.15 in 10.0 mi NNE 3.5 mph - N/A   Scattered Clouds
7:50 AM 50.0 °F 46.4 °F 87% 30.17 in 10.0 mi Variable 4.6 mph - N/A   Scattered Clouds
8:50 AM 51.8 °F 48.2 °F 88% 30.19 in 10.0 mi Variable 3.5 mph - N/A   Clear
9:50 AM 55.4 °F 48.2 °F 77% 30.19 in 10.0 mi Variable 3.5 mph - N/A   Clear
11:55 AM 60.8 °F 46.4 °F 59% 30.16 in 10.0 mi East 4.6 mph - N/A   Clear
12:50 PM 60.8 °F 44.6 °F 55% 30.14 in 10.0 mi Variable 4.6 mph - N/A   Mostly Cloudy
1:50 PM 62.6 °F 44.6 °F 52% 30.12 in 10.0 mi Calm Calm - N/A   Mostly Cloudy
2:50 PM 62.6 °F 44.6 °F 52% 30.10 in 10.0 mi Variable 4.6 mph - N/A   Mostly Cloudy
3:50 PM 62.6 °F 42.8 °F 48% 30.10 in 10.0 mi Variable 5.8 mph - N/A   Mostly Cloudy
4:50 PM 62.6 °F 41.0 °F 45% 30.10 in 10.0 mi Variable 6.9 mph - N/A   Mostly Cloudy
5:50 PM 59.0 °F 44.6 °F 59% 30.10 in 10.0 mi Variable 5.8 mph - N/A   Scattered Clouds
6:50 PM 59.0 °F 44.6 °F 59% 30.12 in 10.0 mi Variable 5.8 mph - N/A   Scattered Clouds
7:50 PM 57.2 °F 44.6 °F 63% 30.14 in 10.0 mi Calm Calm - N/A   Clear
8:50 PM 55.4 °F 46.4 °F 72% 30.15 in 10.0 mi Variable 4.6 mph - N/A   Clear
9:47 PM 55.4 °F 46.4 °F 72% 30.16 in 10.0 mi NNE 3.5 mph - N/A   Clear
10:50 PM 53.6 °F 46.4 °F 77% 30.16 in 10.0 mi North 3.5 mph - N/A   Clear
11:47 PM 51.8 °F 46.4 °F 82% 30.16 in 10.0 mi North 5.8 mph - N/A   Clear